[[{"header":{"parameterUnit":"m.s-1","parameterCategory":1,"la1":30.2991,"la2":30.254,"lo1":-89.0895,"lo2":-89.0444,"dy":0.0017,"dx":0.0017,"nx":28,"ny":28,"refTime":"2023-10-17T21:00:00:Z","depth":0,"parameterNumber":2,"parameterNumberName":"U-component_of_WINDS"},"data":[0,0,0,0,0,0,0,0,0,0,0,0,0,0,0,0,0,0,0,0,0,0,0,0,0,0,0,0,0,0,0,0,0,0,0,0,0,0,0,0,0,0,0,0,0,0,0,0,0,0,0,0,0,0,0,0,0,0,1.2323,1.2323,0,1.233,1.233,1.233,1.2333,1.2333,1.2333,1.2333,1.2342,1.2342,1.2342,0,0,0,0,0,0,0,0,0,0,0,0,0,1.2315,1.2315,1.2323,1.2323,1.2323,1.233,1.233,1.233,1.2333,1.2333,1.2333,1.2333,1.2342,1.2342,1.2342,0,0,0,0,0,0,0,0,0,0,0,0,0,1.232,1.2315,1.2323,1.2325,1.2326,1.233,1.233,1.233,1.2333,1.2333,1.2333,1.2333,1.2342,1.2342,1.2342,1.2346,0,0,1.2344,1.2344,0,0,0,0,0,0,0,0,1.232,1.232,1.2325,1.2325,1.2325,1.2331,1.2331,1.2336,1.2333,1.233,1.2333,1.2333,1.2338,1.2339,1.234,1.2346,1.2347,1.2344,1.2344,1.2344,1.2344,0,0,0,0,0,0,0,1.2319,1.232,1.2326,1.2325,1.2325,1.2327,1.2328,1.2332,1.2335,1.2331,1.2331,1.2332,1.2338,1.234,1.2341,1.2347,1.2344,1.2344,1.2344,1.2344,1.2358,1.2358,0,0,0,0,0,0,1.2318,1.232,1.2326,1.2326,1.2322,1.2327,1.2328,1.2329,1.2334,1.2335,1.2332,1.2332,1.2339,1.234,1.2341,1.2346,1.2344,1.2344,1.2345,1.2358,1.2358,1.2358,0,0,0,0,0,0,1.2318,1.2319,1.2325,1.2323,1.2324,1.2327,1.2329,1.2329,1.2331,1.2335,1.2336,1.2332,1.2339,1.234,1.2345,1.2347,1.2345,1.2345,1.2358,1.2358,1.2358,1.2356,0,0,0,0,0,0,1.2318,1.2319,1.2319,1.2323,1.2324,1.2328,1.2329,1.2329,1.2331,1.2331,1.2336,1.2337,1.2339,1.2344,1.2345,1.2347,1.2345,1.2358,1.2358,1.2358,1.2356,1.2356,1.2356,0,0,0,0,0,1.2317,1.2318,1.2319,1.2319,1.2324,1.2328,1.2329,1.2331,1.2331,1.2332,1.2336,1.2337,1.2347,1.2345,1.2346,1.2348,1.2358,1.2358,1.2358,1.2356,1.2356,1.2356,0,0,0,0,0,0,1.2313,1.2318,1.2319,1.2321,1.2324,1.2328,1.2329,1.2331,1.2335,1.2335,1.2338,1.2339,1.2344,1.2347,1.2345,1.2353,1.2352,1.2353,1.235,1.2351,1.2351,1.235,1.2346,0,0,0,0,0,1.2313,1.2315,1.2319,1.232,1.2322,1.2326,1.2327,1.2329,1.2333,1.2334,1.2338,1.2342,1.2346,1.2349,1.2353,1.2357,1.2359,1.2359,1.2359,1.236,1.236,1.2364,1.2365,1.2359,1.2359,1.2359,0,0,1.2311,1.2314,1.2315,1.2319,1.2322,1.2325,1.2326,1.2329,1.2332,1.2335,1.2339,1.2342,1.2348,1.2352,1.2355,1.2355,1.2362,1.236,1.236,1.236,1.2364,1.2365,1.2365,1.2359,1.2359,1.2359,0,0,1.2309,1.2312,1.2313,1.2316,1.2321,1.2324,1.2325,1.2329,1.2332,1.2336,1.2339,1.2344,1.235,1.2354,1.2357,1.2361,1.2363,1.2362,1.2363,1.2367,1.2367,1.2368,1.237,1.237,1.2363,1.2363,1.2363,0,1.2307,1.231,1.2314,1.2317,1.232,1.2323,1.2326,1.2329,1.2335,1.2337,1.2337,1.2348,1.2351,1.2358,1.2359,1.2361,1.2363,1.2361,1.2367,1.2367,1.2368,1.237,1.237,1.2363,1.2363,1.2363,1.2363,0,1.2308,1.2311,1.2312,1.2317,1.232,1.2323,1.2328,1.2331,1.2334,1.2338,1.2344,1.2349,1.2355,1.2357,1.2359,1.2365,1.2365,1.2366,1.2366,1.2368,1.237,1.2371,1.2363,1.2363,1.2363,1.2363,0,0,1.23,1.231,1.2311,1.2314,1.2321,1.2324,1.2328,1.2334,1.2337,1.2342,1.2346,1.2354,1.2355,1.2359,1.2362,1.2366,1.237,1.2367,1.2367,1.2368,1.2378,1.2377,1.2377,1.2372,1.2372,1.2372,1.2378,0,1.23,1.2306,1.2311,1.2316,1.232,1.2326,1.233,1.2335,1.234,1.2344,1.235,1.2355,1.2357,1.2359,1.2363,1.2369,1.2372,1.2369,1.2377,1.2377,1.2374,1.2378,1.2376,1.2381,1.2378,1.2379,1.2379,0,1.2299,1.2304,1.2309,1.2318,1.232,1.2323,1.233,1.2335,1.2342,1.2345,1.2351,1.2355,1.2361,1.2362,1.2372,1.2369,1.2373,1.2377,1.2377,1.2377,1.2377,1.2378,1.2382,1.2383,1.238,1.238,1.238,0,1.2293,1.2302,1.2307,1.231,1.232,1.2322,1.2327,1.2334,1.2338,1.2345,1.2348,1.2356,1.236,1.2367,1.2374,1.2373,1.2383,1.2384,1.2387,1.2387,1.2387,1.2387,1.2392,1.2391,1.2391,1.2391,1.2391,0,1.2291,1.2294,1.2305,1.2307,1.2312,1.2319,1.2324,1.2329,1.2337,1.2342,1.2348,1.2353,1.2362,1.2368,1.2374,1.2382,1.2384,1.2388,1.2389,1.2387,1.2386,1.2388,1.2388,1.2391,1.2391,1.2391,1.2391,0,1.2285,1.2292,1.2297,1.2308,1.231,1.2313,1.2323,1.2327,1.2333,1.2339,1.2342,1.2351,1.236,1.2368,1.2379,1.2383,1.2391,1.2393,1.2388,1.2389,1.2391,1.2391,1.2397,1.2398,1.2397,1.2397,1.2397,0,1.2282,1.2285,1.2296,1.23,1.2304,1.231,1.2315,1.2323,1.2328,1.2339,1.2342,1.2351,1.2358,1.2372,1.2381,1.239,1.2392,1.2394,1.2393,1.2392,1.2392,1.2392,1.2393,1.2393,1.2393,1.2393,1.2393,0,1.2277,1.2281,1.2287,1.2296,1.2301,1.2308,1.2315,1.2318,1.2329,1.2334,1.2343,1.2349,1.2362,1.2371,1.2382,1.2388,1.2393,1.2394,1.2395,1.2392,1.2389,1.2391,1.2387,1.2393,1.2393,1.2393,1.2393,1.2393,1.2272,1.2276,1.2285,1.2292,1.2299,1.2306,1.2311,1.2319,1.2326,1.2336,1.2342,1.2351,1.2361,1.2377,1.2383,1.2392,1.2392,1.2394,1.2394,1.2394,1.2394,1.2389,1.2394,1.2394,1.2394,1.2394,1.2394,0,1.2268,1.2274,1.2281,1.2292,1.2298,1.2303,1.2312,1.2318,1.2325,1.2335,1.2343,1.2354,1.2364,1.2375,1.2386,1.2391,1.2393,1.2393,1.2393,1.2394,1.2392,1.239,1.2391,1.2391,1.2391,1.2391,1.2391,1.2391,1.2266,1.2272,1.2278,1.2289,1.2296,1.2305,1.231,1.2318,1.2325,1.2338,1.2346,1.2353,1.2364,1.2376,1.2387,1.239,1.2393,1.2393,1.2396,1.2394,1.2394,1.2394,1.2392,1.2394,1.2394,1.2398,1.2398,1.2398]},{"header":{"parameterUnit":"m.s-1","parameterCategory":1,"la1":30.2991,"la2":30.254,"lo1":-89.0895,"lo2":-89.0444,"dy":0.0017,"dx":0.0017,"nx":28,"ny":28,"refTime":"2023-10-17T21:00:00:Z","depth":0,"parameterNumber":3,"parameterNumberName":"V-component_of_WINDS"},"data":[0,0,0,0,0,0,0,0,0,0,0,0,0,0,0,0,0,0,0,0,0,0,0,0,0,0,0,0,0,0,0,0,0,0,0,0,0,0,0,0,0,0,0,0,0,0,0,0,0,0,0,0,0,0,0,0,0,0,2.7647,2.7647,0,2.7612,2.7611,2.7611,2.764,2.7641,2.7642,2.7643,2.7599,2.7597,2.7595,0,0,0,0,0,0,0,0,0,0,0,0,0,2.7733,2.7731,2.7647,2.7647,2.7646,2.7612,2.7611,2.7611,2.7639,2.7641,2.7642,2.7644,2.76,2.7597,2.7595,0,0,0,0,0,0,0,0,0,0,0,0,0,2.7696,2.7731,2.7647,2.7657,2.7657,2.7612,2.7611,2.761,2.7639,2.7641,2.7643,2.7645,2.7601,2.7598,2.7594,2.7535,0,0,2.7584,2.7582,0,0,0,0,0,0,0,0,2.7698,2.7693,2.7656,2.7656,2.7657,2.7632,2.7625,2.7585,2.7639,2.7646,2.7643,2.7645,2.7608,2.7604,2.7593,2.7533,2.7531,2.7583,2.7581,2.758,2.7579,0,0,0,0,0,0,0,2.7701,2.7695,2.7633,2.7655,2.7656,2.766,2.7657,2.7618,2.7617,2.7645,2.7647,2.7643,2.7609,2.7597,2.7592,2.7531,2.7583,2.758,2.7578,2.7577,2.7417,2.7415,0,0,0,0,0,0,2.7703,2.7697,2.7634,2.7632,2.7683,2.7657,2.7654,2.7638,2.7617,2.7616,2.7641,2.7645,2.7602,2.7596,2.7591,2.7519,2.758,2.7576,2.7574,2.742,2.7417,2.7415,0,0,0,0,0,0,2.7705,2.7698,2.7636,2.7665,2.7657,2.7654,2.7636,2.7636,2.7624,2.7615,2.7614,2.763,2.7603,2.7596,2.7549,2.7518,2.7575,2.7572,2.7422,2.7419,2.7416,2.7375,0,0,0,0,0,0,2.7707,2.7698,2.7677,2.7664,2.7656,2.7596,2.7634,2.7634,2.7619,2.7623,2.7603,2.7602,2.7604,2.7554,2.7545,2.7514,2.7569,2.7425,2.7421,2.7417,2.7379,2.7371,2.7364,0,0,0,0,0,2.771,2.7666,2.7676,2.7669,2.763,2.7594,2.7589,2.7595,2.7616,2.7594,2.7588,2.7602,2.7523,2.7549,2.7539,2.7506,2.7427,2.7422,2.7417,2.7382,2.7372,2.7364,0,0,0,0,0,0,2.7674,2.7665,2.7676,2.7627,2.7611,2.76,2.7572,2.7584,2.756,2.7564,2.757,2.7565,2.7515,2.7506,2.7535,2.7447,2.7478,2.7471,2.7455,2.7445,2.7437,2.744,2.7566,0,0,0,0,0,2.7661,2.7635,2.7627,2.7584,2.7576,2.7575,2.756,2.7565,2.7549,2.7542,2.7532,2.7513,2.7484,2.7464,2.7437,2.7378,2.7373,2.7351,2.7343,2.7337,2.733,2.7296,2.7285,2.7399,2.7399,2.7399,0,0,2.7632,2.7624,2.7607,2.7577,2.7566,2.7536,2.757,2.7537,2.7514,2.7536,2.7491,2.7483,2.7462,2.7409,2.7384,2.7399,2.7297,2.7331,2.7326,2.7322,2.7289,2.7279,2.7269,2.7396,2.7396,2.7397,0,0,2.7564,2.7556,2.7519,2.7507,2.7491,2.749,2.7481,2.7467,2.7463,2.7419,2.7434,2.7405,2.7355,2.7339,2.7325,2.7249,2.7261,2.724,2.7199,2.7166,2.7157,2.7149,2.7119,2.7109,2.7234,2.7234,2.7234,0,2.753,2.7488,2.7498,2.7464,2.7449,2.747,2.743,2.7417,2.7391,2.7379,2.7397,2.7334,2.7321,2.7263,2.7245,2.7233,2.722,2.7242,2.7158,2.715,2.7142,2.7114,2.7104,2.7231,2.7231,2.7232,2.7232,0,2.7445,2.7416,2.7387,2.7364,2.7346,2.7309,2.7311,2.7291,2.7297,2.7294,2.7247,2.7233,2.7202,2.7189,2.7194,2.713,2.714,2.7158,2.7188,2.7129,2.7102,2.7092,2.7227,2.7228,2.7229,2.723,0,0,2.7353,2.7335,2.7324,2.7313,2.7296,2.7272,2.7235,2.7207,2.7188,2.7169,2.7136,2.7093,2.7109,2.7092,2.7096,2.7067,2.7005,2.7088,2.7088,2.7071,2.6931,2.6916,2.6904,2.7014,2.7012,2.701,2.6932,0,2.7283,2.7221,2.7228,2.7168,2.7139,2.7158,2.7125,2.7109,2.7105,2.7078,2.7072,2.7041,2.7066,2.7055,2.7027,2.7019,2.6977,2.7025,2.698,2.6978,2.6983,2.689,2.6875,2.6802,2.6922,2.692,2.6919,0,2.7193,2.7172,2.711,2.7096,2.7084,2.7055,2.7028,2.7003,2.6985,2.6983,2.6964,2.6973,2.6932,2.6965,2.6908,2.694,2.6922,2.6915,2.6912,2.6907,2.6944,2.688,2.6779,2.6767,2.6903,2.6904,2.6905,0,2.7129,2.7086,2.7042,2.7032,2.7015,2.6994,2.6985,2.6969,2.6951,2.6927,2.6914,2.6885,2.6869,2.6845,2.6844,2.6869,2.6785,2.6819,2.678,2.678,2.676,2.6761,2.6652,2.6752,2.6752,2.6752,2.6752,0,2.7049,2.7009,2.7013,2.6986,2.6942,2.6949,2.6903,2.6897,2.6882,2.6851,2.6865,2.6836,2.6838,2.6807,2.6806,2.6757,2.675,2.6745,2.6745,2.6743,2.6743,2.673,2.6734,2.6749,2.675,2.675,2.6751,0,2.6969,2.6971,2.6924,2.6912,2.6908,2.6875,2.6863,2.6836,2.6833,2.6795,2.6786,2.678,2.6745,2.6742,2.6701,2.67,2.664,2.6646,2.6647,2.6647,2.6607,2.661,2.6485,2.6467,2.658,2.6579,2.6578,0,2.6917,2.6887,2.6872,2.6854,2.6845,2.6815,2.6797,2.6802,2.6782,2.6758,2.6733,2.67,2.6673,2.6615,2.6605,2.6573,2.6577,2.6535,2.6572,2.657,2.6574,2.6575,2.657,2.6528,2.6526,2.6525,2.6525,0,2.6823,2.6826,2.6801,2.6775,2.6754,2.6734,2.6715,2.6698,2.6701,2.6677,2.6642,2.6622,2.658,2.6545,2.6514,2.6502,2.6512,2.6513,2.6502,2.6499,2.6499,2.6496,2.6625,2.6516,2.6517,2.6517,2.6518,2.6518,2.6755,2.6728,2.6713,2.6684,2.6671,2.6652,2.6626,2.662,2.6592,2.656,2.6564,2.6525,2.6504,2.6463,2.6448,2.6415,2.6429,2.6414,2.6409,2.6405,2.64,2.6507,2.641,2.641,2.641,2.6411,2.6411,0,2.666,2.6651,2.6625,2.6598,2.6575,2.659,2.6569,2.6547,2.6513,2.6495,2.6469,2.6427,2.6393,2.6381,2.6347,2.6323,2.6326,2.6313,2.6314,2.6311,2.6391,2.6403,2.6311,2.6311,2.6311,2.6311,2.6311,2.6311,2.6608,2.6563,2.6563,2.6511,2.6502,2.6466,2.6452,2.6434,2.6419,2.6373,2.6346,2.6339,2.6322,2.6287,2.6255,2.6252,2.6238,2.6222,2.6221,2.6295,2.6305,2.6315,2.6326,2.622,2.622,2.6143,2.6143,2.6142]}]]